Regional Weather Roundup
Issued by NWS

Home | Current Version | Previous Version | Graphics & Text | Print | Product List | Glossary On
Versions: 1 2 3 4 5 6 7 8 9 10 11 12 13 14 15 16 17 18 19 20 21 22 23 24 25 26 27 28
000
ASUS45 KCYS 141710
RWRWY

WYOMING REGIONAL WEATHER ROUNDUP
NATIONAL WEATHER SERVICE CHEYENNE WY
1000 AM MST THU DEC 14 2017

NOTE:  "FAIR" INDICATES FEW OR NO CLOUDS BELOW 12,000 FEET
WITH NO SIGNIFICANT WEATHER AND/OR OBSTRUCTIONS TO VISIBILITY.

WYZ001-141800-
YELLOWSTONE NATIONAL PARK

CITY           SKY/WX    TMP DP  RH WIND       PRES   REMARKS
LK YELLOWSTONE   N/A     11  10  96 CALM      30.41R
W YELLOWSTONE  NOT AVBL

$$
WYZ002>013-054>058-071-098>099-141800-
NORTHERN WYOMING

CITY           SKY/WX    TMP DP  RH WIND       PRES   REMARKS
JACKSON        FAIR      19  14  81 NE6       30.41R WCI  11
CODY           FAIR      34  20  56 S5        30.33R WCI  30
GREYBULL       FAIR      37  22  54 W13       30.32R WCI  29
WORLAND        FAIR      32  25  75 SW7       30.33R WCI  26
SHERIDAN       FAIR      38  21  50 NW26G33   30.31S WCI  26
BUFFALO        FAIR      36  18  48 N24G40    30.26R WCI  24
GILLETTE       LGT SNOW  28  25  88 N15       30.27R FOG     WCI  16
HULETT         FLURRIES  30  23  74 NW12G17   30.25R WCI  21
NEWCASTLE      LGT SNOW  28  21  74 NW25G36   30.22R WCI  14

$$
WYZ014>020-022>026-101>103-141800-
CENTRAL WYOMING

CITY           SKY/WX    TMP DP  RH WIND       PRES   REMARKS
BIG PINEY      FAIR      16  13  88 NE3       30.33S
PINEDALE       FOG       18  18 100 CALM      30.34R VSB 1/2
DUBOIS         FAIR      27  14  59 N10       30.27S WCI  17
LANDER         FAIR      22  18  85 SW3       30.32R
RIVERTON       FAIR      26  18  71 NW10      30.32R WCI  16
CASPER         CLOUDY    29  21  72 NE7       30.30R WCI  22
DOUGLAS        CLOUDY    33  19  56 NW28G41   30.25S WCI  20

$$
WYZ021-027>030-104>119-141800-
SOUTHERN WYOMING

CITY           SKY/WX    TMP DP  RH WIND       PRES   REMARKS
EVANSTON       FAIR      27  22  81 SW7       30.36R WCI  19
FORT BRIDGER   SUNNY     30  25  80 W16       30.37R WCI  19
ROCK SPRINGS   CLOUDY    24  22  91 W8        30.33S WCI  15
DIXON          FAIR      25  18  76 CALM      30.36R
RAWLINS        FAIR      25  19  78 W9        30.30R WCI  15
SARATOGA       CLOUDY    25  19  80 W9        30.30R WCI  15
LARAMIE        LGT SNOW  23  20  88 NW23      30.21R FOG     WCI   7
CHEYENNE       LGT SNOW  26  23  88 N17G28    30.20R FOG     WCI  13
TORRINGTON     FAIR      37  17  44 N25G39    30.20S WCI  25
PINE BLUFFS    FAIR      32  19  59 N30G40    30.21R WCI  18

$$




USA.gov is the U.S. government's official web portal to all federal, state and local government web resources and services.